User: anonymous   Login
Location: Domont
(49.0278°N, 2.3264°E)
Time: 12:36:44
(UTC+00:00)
Language:

POLYITAN 1 - Orbit

View from above orbital plane
View from above orbital plane
View from above satellite
View from above satellite

Ground track
Ground track

The orbit data is extracted from the following two-line orbital elements,

1 40042U 14033AJ  22178.81100884  .00001377  00000-0  14653-3 0  9991
2 40042  97.9712 117.4950 0015047  21.2259 338.9579 14.90568274435194
Epoch (UTC): 27 June 2022 19:27:51
Eccentricity: 0.0015047
inclination: 97.9712°
perigee height: 585 km
apogee height: 606 km
right ascension of ascending node: 117.4950°
argument of perigee: 21.2259°
revolutions per day: 14.90568274
mean anomaly at epoch: 338.9579°
orbit number at epoch: 43519

The dashed part of the orbit path shows where the satellite is in the earth's shadow,  

DLR